Location: Medoc Mountain State Park
(36.2578°N, 77.8786°W)
Time: 07:00:01
(UTC-04:00)

Daily predictions for brighter satellites

Satellite Brightness Start Highest point End
(mag) Time Altitude Azimuth Time Altitude Azimuth Time Altitude Azimuth
Cosmos 2360 Rocket 2.7 18:47:54 10° N 18:53:12 39° ENE 18:58:28 10° SE
COSMOS 2428 4.0 18:52:14 10° N 18:56:13 19° NE 19:00:10 10° E
SL-8 Rocket 4.3 18:50:48 10° S 18:56:58 76° W 19:03:13 10° N
Cosmos 1833 4.2 18:53:17 10° SSW 18:58:59 79° ESE 19:04:39 10° NNE
Cosmos 2333 Rocket 4.1 18:57:49 10° NE 18:59:00 11° NE 19:00:11 10° ENE
Cosmos 2322 Rocket 2.6 18:55:47 10° NNW 19:01:23 69° WSW 19:06:57 10° S
BREEZE-M DEB (TANK) 4.5 18:57:20 10° NW 19:01:31 39° NE 19:15:51 10° ESE
Cosmos 2219 4.2 18:57:16 10° SSE 19:01:54 26° ESE 19:06:33 10° NE
COSMO-SKYMED 1 2.7 18:58:07 10° NNE 19:02:24 55° E 19:06:38 10° S
Abrixas 3.3 19:06:18 10° S 19:08:00 20° SE 19:09:11 14° E
FENGYUN 3A 4.1 19:11:18 10° SE 19:16:17 40° ENE 19:21:19 10° N
Cosmos 44 3.3 19:14:12 10° S 19:18:23 45° ESE 19:22:31 10° NE
Cosmos 1315 Rocket 3.2 19:14:46 10° N 19:18:40 43° ENE 19:22:36 10° SSE
Meteor 2-1 Rocket 4.3 19:14:27 10° S 19:20:12 83° E 19:26:07 10° N
Cosmos 1821 Rocket 4.4 19:14:56 10° SSE 19:20:29 37° E 19:26:07 10° NNE
EO 1 Del DPAF 3.8 19:18:25 10° N 19:22:13 60° WNW 19:25:59 10° SSW
YAOGAN 1 3.0 19:18:37 10° S 19:22:54 65° W 19:27:13 10° NNW
Cosmos 2322 3.7 19:20:23 10° NNW 19:26:03 59° ENE 19:31:39 10° SE
Tiangong 1 3.9 19:26:31 10° WSW 19:27:23 11° SW 19:28:13 10° SSW
USA 267 3.9 19:25:18 13° ENE 19:30:23 33° SE 19:36:08 10° S
Cosmos 1269 Rocket 4.2 19:25:37 10° S 19:30:37 47° ESE 19:35:40 10° NNE
SPOT 3 Rocket 3.5 19:27:42 10° SSE 19:32:53 85° ENE 19:38:07 10° NNW
Cosmos 2151 3.2 19:28:39 10° N 19:32:55 74° W 19:37:08 10° S
ERS-2 4.3 19:30:07 10° SSW 19:33:25 30° W 19:36:43 10° NW
DMSP B5D1-3 4.4 19:30:10 10° NNE 19:35:19 76° ESE 19:40:27 10° S
Cosmos 1727 Rocket 4.3 19:29:19 10° N 19:35:40 76° W 19:41:58 10° S
CZ-3 Stage 3 2.0 19:35:06 10° SW 19:36:21 16° S 19:36:48 15° SSE
ASTRO E2 3.6 19:35:41 10° WSW 19:39:25 39° S 19:41:35 21° SE
SJ-6B 4.2 19:40:35 19° NE 19:40:35 19° NE 19:42:25 10° NNE
GRACE-2 4.4 19:37:06 10° S 19:39:37 55° W 19:42:09 10° N
FREGAT/IRIS 4.3 19:42:27 19° NNE 19:42:27 19° NNE 19:43:39 10° NNE
Aureole 2 4.2 19:38:03 10° NNW 19:41:11 68° ENE 19:44:44 10° SSE
RESURS DK-1 2.4 19:37:18 10° NNW 19:41:27 81° WSW 19:45:33 10° SSE
Cosmos 2219 Rocket 3.1 19:37:05 10° N 19:41:46 27° ENE 19:43:15 24° E
Cosmos 44 Rocket 3.1 19:37:12 10° SSW 19:41:55 80° ESE 19:46:37 10° NNE
Meteor 2-10 4.4 19:40:42 10° SSE 19:45:13 35° E 19:49:48 10° NNE
Cosmos 1726 2.1 19:43:39 10° S 19:47:15 53° E 19:50:52 10° NNE
Cosmos 2098 Rocket 3.2 19:43:43 10° S 19:47:51 64° E 19:53:11 10° NNE
Cosmos 1452 Rocket 3.7 19:44:10 10° NNW 19:49:25 77° WSW 19:54:39 10° S
Cosmos 2058 4.2 19:46:55 10° NNW 19:50:53 43° W 19:54:48 10° SSW
Atlas Centaur 2 2.9 19:47:19 10° WSW 19:51:38 37° S 19:54:54 20° SE
Cosmos 2123 Rocket 4.4 19:46:52 10° N 19:52:37 37° ENE 19:57:54 12° SE
BREEZE-M DEB (TANK) 2.1 19:52:27 10° WNW 19:54:19 40° SW 19:54:39 36° S
Cosmos 1605 Rocket 4.4 19:49:20 10° SSE 19:54:46 35° E 20:00:11 10° NNE
FALCON 9 R/B 3.8 19:54:19 10° SSW 19:54:55 10° SSW 19:55:34 10° S
Delta 2 Rocket 2.8 19:51:44 10° W 19:55:27 82° S 19:56:09 54° ESE
Gbstr 26 Del rocket 4.5 19:51:41 10° NNW 19:56:28 35° NNE 19:58:17 29° ENE
Cosmos 2221 3.0 19:53:47 10° SSW 19:58:02 61° W 20:02:21 10° N
PSLV R/B 4.4 19:55:45 10° SSW 19:57:53 27° S 19:57:53 27° S
Aureole 2 Rocket 4.0 19:55:53 10° N 19:58:14 27° NNE 19:58:14 27° NNE
Cosmos 2333 4.2 19:56:06 10° NNW 20:01:47 62° ENE 20:05:29 22° SE
CZ-4C R/B 2.0 19:58:14 10° SSW 20:03:19 85° WNW 20:08:30 13° NNE
Cosmos 2237 4.3 19:58:45 10° NNW 20:04:30 80° WSW 20:10:11 10° SSE
SL-24 R/B - RUBIN 2 4.3 20:01:48 10° NW 20:06:22 52° WSW 20:10:32 10° SSE
H-2A R/B 2.6 20:07:32 50° SE 20:08:26 72° ENE 20:12:20 10° N
Cosmos 921 Rocket 4.0 20:04:37 10° NNW 20:08:53 48° W 20:13:03 10° S
Iridium 4 Rocket 4.0 20:04:50 10° S 20:10:14 68° W 20:16:03 10° N
BREEZE-M R/B 3.4 20:09:12 10° SW 20:10:41 32° SSW 20:10:41 32° SSW
Cosmos 2237 Rocket 3.4 20:09:42 10° N 20:13:12 25° NE 20:13:12 25° NE
In-Cosmos 22 Rocket 4.4 20:09:13 10° N 20:14:45 47° ENE 20:15:17 45° E
DELTA 2 R/B (1) 3.5 20:12:05 10° WNW 20:17:42 84° SSW 20:19:09 52° ESE
Cosmos 2227 Rocket 3.0 20:13:54 10° S 20:17:28 33° SE 20:17:28 33° SE
Resurs 01 Rocket 3.9 20:23:46 12° N 20:23:46 12° N 20:24:13 10° N
ALOS 3.7 20:19:02 10° SSW 20:23:22 38° W 20:27:43 10° NNW
SL-16 R/B 4.4 20:21:44 10° NNE 20:21:48 10° NNE 20:21:48 10° NNE
Cosmos 1300 3.6 20:28:35 10° SSW 20:31:27 44° SW 20:31:27 44° SW
Meteor 2-2 Rocket 4.1 20:30:53 10° S 20:36:36 84° E 20:42:17 10° N
Cosmos 2360 Rocket 4.3 20:32:23 10° NW 20:36:55 25° WSW 20:41:26 10° SSW
NOSS 0 Rocket 3.9 20:32:14 10° NNW 20:37:56 59° NE 20:37:56 59° NE
COSMOS 2428 3.2 20:35:17 10° NNW 20:40:51 58° WSW 20:44:03 25° S
Hubble Space Telescope 3.4 20:38:12 10° SSW 20:38:43 12° SSW 20:38:43 12° SSW
Cosmos 2333 Rocket 2.2 20:38:28 10° NNW 20:43:38 68° NNE 20:43:38 68° NNE
Sich 1 3.8 20:40:56 10° NNW 20:44:35 51° WNW 20:44:35 51° WNW
Cosmos 2219 4.5 20:40:27 10° SW 20:45:48 39° WNW 20:51:10 10° N
BREEZE-M DEB (TANK) 4.3 20:46:25 10° WNW 20:52:04 28° N 20:52:04 28° N
Cosmos 2297 Rocket 4.0 20:51:15 10° SSW 20:52:50 20° SSW 20:52:50 20° SSW
Centaur D AC-29 3.2 20:55:04 10° WSW 20:59:12 23° SSW 20:59:12 23° SSW
USA 267 3.6 21:12:41 56° N 21:13:33 61° NW 21:19:56 10° WSW
MOS 1-B Rocket 4.4 21:15:59 53° WNW 21:15:59 53° WNW 21:21:07 10° NNW
Cosmos 2219 Rocket 3.5 21:20:37 10° NW 21:25:02 36° W 21:25:02 36° W
Atlas Centaur 2 4.5 21:36:11 10° WSW 21:37:32 15° SW 21:37:32 15° SW
Cosmos 2237 Rocket 4.5 21:53:21 10° NW 21:55:03 19° NW 21:55:03 19° NW
